Location: Croissy-Beaubourg
(48.8283°N, 2.6696°E)
Time: 01:33:13
(UTC+00:00)

USA 215 - Pass Details

Date: 25 May 2022
Orbit: 1099 x 1108 km, 123.0° (Epoch: 10 June)

Event Time Altitude Azimuth Distance (km) Brightness Sun altitude
Rises 01:00:45 0° 63° (ENE) 3,923 6.9 -18.3°
Reaches altitude 10° 01:03:18 10° 58° (ENE) 2,966 6.2 -18.2°
Maximum altitude 01:09:33 50° 346° (NNW) 1,380 4.1 -17.8°
Drops below altitude 10° 01:15:49 10° 273° (W) 2,967 5.3 -17.4°
Sets 01:18:22 0° 269° (W) 3,926 5.9 -17.3°
